| time (UTC) | temp F | wind direction | speed knots | gust knots | rain 1hr in | rain 24hr in | rain mn in | humidity % | barometer mb |
| 20260507083100 | 67 | 0.0 | 0.0 | 0.00 | 0.01 | 0.01 | 75 | 1011.6 | |
| 20260507081558 | 67 | 0.0 | 0.0 | 0.00 | 0.01 | 0.01 | 71 | 1011.3 | |
| 20260507080058 | 66 | 0.0 | 0.0 | 0.00 | 0.01 | 0.01 | 72 | 1011.2 | |
| 20260507074602 | 65 | 0.0 | 0.0 | 0.00 | 0.01 | 0.01 | 70 | 1011.1 | |
| 20260507073109 | 64 | 0.0 | 0.0 | 0.00 | 0.01 | 0.01 | 75 | 1011.1 | |
| 20260507071600 | 63 | 0.0 | 0.0 | 0.00 | 0.01 | 0.01 | 79 | 1011.3 | |
| 20260507070110 | 61 | 0.0 | 0.0 | 0.00 | 0.01 | 0.01 | 82 | 1011.3 | |
| 20260507064606 | 60 | 0.0 | 0.0 | 0.00 | 0.01 | 0.01 | 87 | 1011.2 | |
| 20260507063059 | 60 | 0.0 | 0.0 | 0.00 | 0.01 | 0.01 | 91 | 1011.3 | |
| 20260507061559 | 59 | 0.0 | 0.0 | 0.00 | 0.01 | 0.01 | 92 | 1011.2 | |
| 20260507060059 | 59 | 0.0 | 0.0 | 0.00 | 0.01 | 0.01 | 92 | 1011.2 | |
| 20260507054600 | 59 | 0.0 | 0.0 | 0.00 | 0.02 | 0.01 | 92 | 1011.0 | |
| 20260507053100 | 59 | 0.0 | 0.0 | 0.00 | 0.02 | 0.01 | 92 | 1010.9 | |
| 20260507051608 | 59 | 0.0 | 0.0 | 0.00 | 0.02 | 0.01 | 92 | 1010.8 | |
| 20260507050110 | 59 | 0.0 | 0.0 | 0.00 | 0.02 | 0.01 | 92 | 1010.6 | |
| 20260507044600 | 59 | 0.0 | 0.0 | 0.00 | 0.08 | 0.01 | 92 | 1010.3 | |
| 20260507043100 | 59 | 0.0 | 0.0 | 0.00 | 0.08 | 0.01 | 92 | 1010.0 | |
| 20260507041601 | 58 | 0.0 | 0.0 | 0.00 | 0.08 | 0.01 | 92 | 1010.1 | |
| 20260507040106 | 58 | 0.0 | 0.0 | 0.00 | 0.08 | 0.01 | 92 | 1009.9 | |
| 20260507034605 | 58 | 0.0 | 0.0 | 0.00 | 0.08 | 0.01 | 91 | 1010.0 | |
| 20260507033103 | 58 | 0.0 | 0.0 | 0.00 | 0.08 | 0.01 | 91 | 1009.9 | |
| 20260507031557 | 58 | 0.0 | 0.0 | 0.00 | 0.08 | 0.01 | 90 | 1009.9 | |
| 20260507030056 | 58 | 0.0 | 0.0 | 0.00 | 0.08 | 0.01 | 90 | 1009.9 | |
| 20260507024558 | 59 | 0.0 | 0.0 | 0.00 | 0.08 | 0.01 | 89 | 1009.8 | |
| 20260507023057 | 59 | 0.0 | 0.0 | 0.00 | 0.08 | 0.01 | 89 | 1009.7 | |
| 20260507021606 | 60 | 0.0 | 0.0 | 0.00 | 0.08 | 0.01 | 88 | 1009.7 | |
| 20260507020059 | 60 | 0.0 | 0.0 | 0.01 | 0.08 | 0.01 | 88 | 1009.7 | |
| 20260507014559 | 60 | 0.0 | 0.0 | 0.01 | 0.08 | 0.01 | 87 | 1009.8 | |
| 20260507013100 | 61 | 0.0 | 0.0 | 0.01 | 0.08 | 0.01 | 86 | 1009.7 | |
| 20260507011559 | 62 | 0.0 | 0.0 | 0.01 | 0.08 | 0.01 | 83 | 1009.9 | |
| 20260507010057 | 62 | 0.0 | 0.0 | 0.00 | 0.07 | 0.00 | 81 | 1009.7 | |
| 20260507004559 | 63 | 0.0 | 0.0 | 0.00 | 0.07 | 0.00 | 78 | 1009.8 | |
| 20260507003059 | 63 | 0.0 | 0.0 | 0.00 | 0.07 | 0.00 | 79 | 1009.8 | |
| 20260507001606 | 63 | 0.0 | 0.0 | 0.00 | 0.07 | 0.00 | 77 | 1009.9 | |
| 20260507000101 | 63 | 0.0 | 0.0 | 0.00 | 0.07 | 0.00 | 77 | 1010.0 | |
| 20260506234624 | 63 | 0.0 | 0.0 | 0.00 | 0.07 | 0.00 | 76 | 1009.7 | |
| 20260506233100 | 63 | 0.0 | 0.0 | 0.00 | 0.07 | 0.00 | 76 | 1009.6 | |
| 20260506231557 | 63 | 0.0 | 0.0 | 0.00 | 0.07 | 0.00 | 75 | 1009.5 | |
| 20260506230100 | 64 | 0.0 | 0.0 | 0.00 | 0.07 | 0.00 | 75 | 1009.8 | |
| 20260506224556 | 64 | 0.0 | 0.0 | 0.00 | 0.07 | 0.00 | 75 | 1009.7 | |
| 20260506223102 | 64 | 0.0 | 0.0 | 0.00 | 0.07 | 0.00 | 74 | 1009.7 | |
| 20260506221600 | 64 | 0.0 | 0.0 | 0.00 | 0.07 | 0.00 | 74 | 1009.8 | |
| 20260506220058 | 64 | 0.0 | 0.0 | 0.00 | 0.07 | 0.00 | 73 | 1009.8 | |
| 20260506214557 | 64 | 0.0 | 0.0 | 0.00 | 0.13 | 0.07 | 73 | 1010.0 | |
| 20260506213057 | 64 | 0.0 | 0.0 | 0.00 | 0.13 | 0.07 | 73 | 1009.8 | |
| 20260506211557 | 64 | 0.0 | 0.0 | 0.00 | 0.13 | 0.07 | 73 | 1009.9 | |
| 20260506210058 | 64 | 0.0 | 0.0 | 0.00 | 0.13 | 0.07 | 74 | 1010.0 | |
| 20260506204601 | 64 | 0.0 | 0.0 | 0.00 | 0.28 | 0.07 | 74 | 1009.9 | |
| 20260506203059 | 65 | 0.0 | 0.0 | 0.00 | 0.28 | 0.07 | 75 | 1009.9 | |
| 20260506201600 | 65 | 0.0 | 0.0 | 0.00 | 0.28 | 0.07 | 76 | 1009.7 | |
| 20260506200113 | 66 | 0.0 | 0.0 | 0.00 | 0.28 | 0.07 | 74 | 1009.6 | |
| 20260506194619 | 66 | 0.0 | 0.0 | 0.00 | 0.33 | 0.07 | 71 | 1009.6 | |
| 20260506193058 | 67 | 0.0 | 0.0 | 0.00 | 0.33 | 0.07 | 69 | 1009.3 | |
| 20260506191559 | 67 | 0.0 | 0.0 | 0.00 | 0.33 | 0.07 | 69 | 1009.2 | |
| 20260506190101 | 67 | 0.0 | 0.0 | 0.00 | 0.33 | 0.07 | 68 | 1008.9 | |
| 20260506184611 | 67 | 0.0 | 0.0 | 0.00 | 0.51 | 0.07 | 68 | 1008.7 | |
| 20260506183105 | 68 | 0.0 | 0.0 | 0.00 | 0.51 | 0.07 | 67 | 1008.4 | |
| 20260506181600 | 68 | 0.0 | 0.0 | 0.00 | 0.51 | 0.07 | 66 | 1008.1 | |
| 20260506180058 | 68 | 0.0 | 0.0 | 0.00 | 0.51 | 0.07 | 65 | 1008.0 | |
| 20260506174603 | 69 | 0.0 | 0.0 | 0.00 | 0.58 | 0.07 | 65 | 1007.8 | |
| 20260506173111 | 69 | 0.0 | 0.0 | 0.00 | 0.58 | 0.07 | 63 | 1007.7 | |
| 20260506171601 | 70 | 0.0 | 0.0 | 0.00 | 0.58 | 0.07 | 63 | 1007.6 | |
| 20260506170058 | 71 | 0.0 | 0.0 | 0.00 | 0.58 | 0.07 | 62 | 1007.4 | |
| 20260506164558 | 72 | 0.0 | 0.0 | 0.00 | 0.59 | 0.07 | 61 | 1007.3 | |
| 20260506163057 | 73 | 0.0 | 0.0 | 0.00 | 0.59 | 0.07 | 60 | 1007.6 | |
| 20260506161606 | 74 | 0.0 | 0.0 | 0.00 | 0.59 | 0.07 | 58 | 1007.5 | |
| 20260506154609 | 74 | 0.0 | 0.0 | 0.00 | 0.59 | 0.07 | 57 | 1007.5 | |
| 20260506153104 | 73 | 0.0 | 0.0 | 0.00 | 0.59 | 0.07 | 59 | 1007.5 | |
| 20260506151609 | 73 | 0.0 | 0.0 | 0.00 | 0.59 | 0.07 | 60 | 1007.4 | |
| 20260506150057 | 73 | 0.0 | 0.0 | 0.00 | 0.59 | 0.07 | 60 | 1007.4 | |
| 20260506144619 | 73 | 0.0 | 0.0 | 0.00 | 0.59 | 0.07 | 59 | 1007.4 | |
| 20260506143105 | 73 | 0.0 | 0.0 | 0.00 | 0.59 | 0.07 | 57 | 1007.3 | |
| 20260506141558 | 73 | 0.0 | 0.0 | 0.00 | 0.59 | 0.07 | 59 | 1007.4 | |
| 20260506140111 | 73 | 0.0 | 0.0 | 0.00 | 0.59 | 0.07 | 58 | 1007.8 | |
| 20260506134556 | 73 | 0.0 | 0.0 | 0.00 | 0.59 | 0.07 | 59 | 1008.1 | |
| 20260506133059 | 73 | 0.0 | 0.0 | 0.00 | 0.59 | 0.07 | 57 | 1008.2 | |
| 20260506131600 | 74 | 0.0 | 0.0 | 0.00 | 0.59 | 0.07 | 58 | 1008.6 | |
| 20260506130136 | 73 | 0.0 | 0.0 | 0.00 | 0.59 | 0.07 | 58 | 1008.6 | |
| 20260506124559 | 72 | 0.0 | 0.0 | 0.00 | 0.59 | 0.07 | 60 | 1008.9 | |
| 20260506123059 | 73 | 0.0 | 0.0 | 0.00 | 0.59 | 0.07 | 58 | 1008.8 | |
| 20260506121602 | 74 | 0.0 | 0.0 | 0.00 | 0.59 | 0.07 | 57 | 1008.7 | |
| 20260506114558 | 75 | 0.0 | 0.0 | 0.00 | 0.59 | 0.07 | 59 | 1008.8 | |
| 20260506113107 | 73 | 0.0 | 0.0 | 0.00 | 0.59 | 0.07 | 63 | 1009.0 | |
| 20260506111604 | 72 | 0.0 | 0.0 | 0.00 | 0.59 | 0.07 | 65 | 1009.1 | |
| 20260506110105 | 71 | 0.0 | 0.0 | 0.00 | 0.59 | 0.07 | 66 | 1009.4 | |
| 20260506104617 | 70 | 0.0 | 0.0 | 0.00 | 0.59 | 0.07 | 68 | 1009.4 | |
| 20260506103100 | 69 | 0.0 | 0.0 | 0.00 | 0.59 | 0.07 | 68 | 1009.5 | |
| 20260506101604 | 69 | 0.0 | 0.0 | 0.00 | 0.59 | 0.07 | 68 | 1009.4 | |
| 20260506100104 | 69 | 0.0 | 0.0 | 0.00 | 0.59 | 0.07 | 69 | 1009.3 | |
| 20260506094600 | 68 | 0.0 | 0.0 | 0.00 | 0.59 | 0.07 | 72 | 1009.5 | |
| 20260506093105 | 67 | 0.0 | 0.0 | 0.00 | 0.59 | 0.07 | 76 | 1009.6 | |
| 20260506091558 | 66 | 0.0 | 0.0 | 0.00 | 0.59 | 0.07 | 77 | 1009.5 | |
| 20260506084558 | 65 | 0.0 | 0.0 | 0.00 | 0.59 | 0.07 | 81 | 1009.6 |